Tracking 17694 objects as of 28-May-2016
HD Live streaming from Space Station
objects crossing your sky now

COSMOS 2318 (GLONASS)

Track COSMOS 2318 (GLONASS) now!
COSMOS 2318 (GLONASS) is classified as:


NORAD ID: 23622
Int'l Code: 1995-037C
Perigee: 19,077.6 km
Apogee: 19,196.8 km
Inclination: 66.5 °
Period: 675.7 minutes
Semi major axis: 25508 km
RCS: 3.5243 m2 (large)
Launch date: July 24, 1995
Source: Commonwealth of Independent States (former USSR) (CIS)
Launch site: TYURATAM MISSILE AND SPACE COMPLEX (TTMTR)
SV:
Your satellite tracking list
Your tracking list is empty





NASA's NSSDC Master Catalog

Two Line Element Set (TLE):
1 23622U 95037C   16147.65860572 -.00000006  00000-0  00000+0 0  9993
2 23622  66.5005 322.8502 0023365 108.7919 274.3057  2.13101319162216
Source of the keplerian elements: AFSPC

N2YO: 543